MPEC 2005-J35 : 2005 JB22

The following Minor Planet Electronic Circular may be linked-to from your own Web pages, but must not otherwise be redistributed electronically.


Read MPEC 2005-J34 Read MPEC 2005-J36


M.P.E.C. 2005-J35                                Issued 2005 May  9, 11:31 UT

     The Minor Planet Electronic Circulars contain information on unusual
         minor planets and routine data on comets.  They are published
   on behalf of Commission 20 of the International Astronomical Union by the
          Minor Planet Center, Smithsonian Astrophysical Observatory,
                          Cambridge, MA 02138, U.S.A.

                  Supported in part by the Brinson Foundation
             Prepared using the Tamkin Foundation Computer Network

                              MPC@CFA.HARVARD.EDU
          URL http://cfa-www.harvard.edu/iau/mpc.html  ISSN 1523-6714

                                   2005 JB22

Observations:
     K05J22B*tC2005 05 07.18275 13 14 11.68 -04 32 25.6          20.4 V EJ035691
     K05J22B tC2005 05 07.19870 13 14 19.20 -04 29 28.0          20.2 V EJ035691
     K05J22B tC2005 05 07.21497 13 14 26.69 -04 26 28.6          20.1 V EJ035691
     K05J22B tC2005 05 08.13659 13 21 40.65 -01 52 39.5          20.5 V EJ035691
     K05J22B tC2005 05 08.13960 13 21 41.79 -01 52 12.3                 EJ035691
     K05J22B tC2005 05 08.14256 13 21 42.90 -01 51 46.6          20.7 V EJ035691
     K05J22B tC2005 05 08.14708 13 21 44.71 -01 51 03.7                 EJ035691
     K05J22B tC2005 05 08.15007 13 21 45.79 -01 50 38.2                 EJ035691
     K05J22B tC2005 05 08.15300 13 21 46.86 -01 50 12.8                 EJ035691
     K05J22B  C2005 05 08.21829 13 22 11.31 -01 40 26.6          19.0 V EJ035703
     K05J22B  C2005 05 08.22471 13 22 13.65 -01 39 29.4          20.1 V EJ035703
     K05J22B  C2005 05 08.23112 13 22 16.03 -01 38 33.9          19.7 V EJ035703
     K05J22B  C2005 05 08.23752 13 22 18.40 -01 37 35.4          19.5 V EJ035703
     K05J22B 5C2005 05 08.25764 13 22 26.92 -01 34 39.5          20.2 R EJ035673
     K05J22B 5C2005 05 08.26273 13 22 28.68 -01 33 56.3                 EJ035673
     K05J22B 5C2005 05 08.26505 13 22 29.62 -01 33 35.5          21.0 R EJ035673
     K05J22B 5C2005 05 08.27257 13 22 32.28 -01 32 30.3          20.6 R EJ035673
     K05J22B  C2005 05 08.28403 13 22 35.64 -01 30 44.2          20.3 R EJ035651
     K05J22B  C2005 05 08.28534 13 22 36.15 -01 30 32.4          20.3 R EJ035651
     K05J22B  C2005 05 08.29032 13 22 38.00 -01 29 48.9          20.3 R EJ035651
     K05J22B  C2005 05 08.88936 13 26 34.88 -00 07 35.0                 EJ035493
     K05J22B  C2005 05 08.89471 13 26 36.63 -00 06 53.7          20.1 R EJ035493
     K05J22B  C2005 05 08.90064 13 26 38.58 -00 06 07.9          20.2 R EJ035493
     K05J22B  C2005 05 08.92585 13 26 46.49 -00 03 14.6                 EJ035J95
     K05J22B  C2005 05 08.94667 13 26 53.47 -00 00 33.7          20.1 R EJ035J95
     K05J22B tC2005 05 09.16026 13 28 13.15 +00 26 39.9          20.9 V EJ035691
     K05J22B tC2005 05 09.20165 13 28 25.94 +00 31 41.6          20.3 V EJ035691
     K05J22B tC2005 05 09.20454 13 28 26.87 +00 32 03.3          19.1 V EJ035691
     K05J22B 5C2005 05 09.27940 13 28 50.58 +00 41 11.2          20.2 R EJ035673
     K05J22B 5C2005 05 09.28299 13 28 51.30 +00 41 27.8                 EJ035673
     K05J22B 5C2005 05 09.29317 13 28 54.40 +00 42 40.8          20.6 R EJ035673
     K05J22B 5C2005 05 09.29988 13 28 56.45 +00 43 28.9          21.0 R EJ035673

Observer details:
493 Calar Alto.  Observers M. Busch, F. Hormuth, M. Kretlow.  1.52-m f/8
    reflector + CCD.
651 Grasslands Observatory, Tucson.  Observer J. E. McGaha.  0.62-m f/5.1
    Newtonian reflector + CCD.
673 Table Mountain Observatory, Wrightwood.  Observer J. Young.  0.6-m
    reflector + CCD.
691 Steward Observatory, Kitt Peak.  Observers J. V. Scotti, T. J. Hoffman,
    R. S. McMillan, M. T. Read.  Measurers J. V. Scotti, R. S. McMillan,
    M. T. Read.  0.9-m f/3 reflector + CCD.
703 Catalina Sky Survey.  Observer S. M. Larson.  Measurers E. C. Beshore,
    C. M. Casey, E. J. Christensen, G. J. Garradd, R. E. Hill, S. M. Larson,
    R. H. McNaught.  0.68-m Schmidt + CCD.
J95 Great Shefford.  Observer P. Birtwhistle.  0.30-m f/6.3 Schmidt-Cassegrain
    + CCD.

Orbital elements:
2005 JB22
Epoch 2005 Jan. 30.0 TT = JDT 2453400.5                 MPC
M 342.03302              (2000.0)            P               Q
n   0.90188336     Peri.  249.21913     -0.37774604     -0.90610601
a   1.0609684      Node   224.50934     +0.91795504     -0.33958458
e   0.3602707      Incl.   15.76579     +0.12110523     -0.25229786
P   1.09           H   24.9           G   0.15           U   8
Residuals in seconds of arc
050507 691  0.2-  0.4-    050508 703  1.0-  0.9-    050508 493  0.0   0.2-
050507 691  0.6+  0.3+    050508 703  1.0-  0.8+    050508 J95  1.3-  0.3-
050507 691  0.5-  0.3-    050508 673 (2.2+  2.3+)   050508 J95  0.3-  0.5+
050508 691  1.1+  0.2-    050508 673  0.4+  0.5+    050509 691  0.3+  0.2-
050508 691  0.8+  0.2-    050508 673  1.6+  0.9+    050509 691  0.5+  1.7-
050508 691  0.3+  1.2-    050508 673  0.0   0.2-    050509 691  1.2+  1.0-
050508 691  1.4+  0.9+    050508 651  0.8+  0.0     050509 673 (6.3+  9.5+)
050508 691  0.4+  0.6-    050508 651  1.3+  0.3+    050509 673  0.8+  0.3+
050508 691  0.4-  1.6-    050508 651  1.5+  0.0     050509 673  1.3+  0.3+
050508 703  0.4-  0.5+    050508 493  0.1-  0.1+    050509 673  1.7+  0.4+
050508 703  1.1-  0.6+    050508 493  0.1-  0.1-

Ephemeris:
2005 JB22                a,e,i = 1.06, 0.36, 16                  q = 0.6787
Date    TT    R. A. (2000) Decl.     Delta      r     Elong.  Phase     V
2005 05 10    13 32.70   +02 02.4    0.0805   1.080   149.5    28.4    20.8
2005 05 11    13 37.35   +03 37.4    0.0879   1.086   148.4    29.2    21.1
2005 05 12    13 41.34   +04 56.8    0.0953   1.092   147.3    30.0    21.3
2005 05 13    13 44.82   +06 03.8    0.103    1.097   146.2    30.8    21.5
2005 05 14    13 47.88   +07 00.6    0.111    1.103   145.2    31.5    21.7
2005 05 15    13 50.61   +07 49.2    0.118    1.109   144.2    32.2    21.9
2005 05 16    13 53.06   +08 30.9    0.126    1.115   143.3    32.8    22.0
2005 05 17    13 55.29   +09 06.9    0.134    1.120   142.4    33.4    22.2
2005 05 18    13 57.33   +09 37.9    0.142    1.126   141.5    34.0    22.3
2005 05 19    13 59.21   +10 04.8    0.150    1.131   140.7    34.5    22.5
2005 05 20    14 00.95   +10 28.0    0.158    1.137   139.9    35.0    22.6

Timothy B. Spahr             (C) Copyright 2005 MPC           M.P.E.C. 2005-J35

Read MPEC 2005-J34 Read MPEC 2005-J36


Our Web policy. Index to the CBAT/MPC/ICQ pages.

MPC